Aérodrome :
LOGIN :

S'inscrire | Disclaimer

   EN    FR    IT 

 










Légende :    VFR   VFR Marginal   IFR   IFR Intensif   IFR Très Intensif
Visi : 
Plafond : 
>= 8 km
>= 3000ft
5 à 8 km
1000 à 3000 ft
1500m à 5 km
500 à 1000 ft
800 à 1500m
200 à 500 ft
< 800m
< 200 ft
Symboles :   Orages  Brouillard  Fortes neiges  Fortes précipitations  Vent > 20 kt
SIGMETs :   Divers  Orages  Givrage  Turbulence  Onde Orograph.  Cendres Volcan.







- Altitude de l'aérodrome : 72 ft
- Code IATA : UDE


EHVK - Volkel Airbase

DERNIER METAR :
  • 200825Z AUTO 06004KT 9999 NCD M05/M07 Q1016 BLU

METARs EXPIRÉS :
  • 200755Z AUTO 06005KT 9999 NCD M06/M08 Q1016 BLU
  • 200725Z AUTO 06005KT 9999 NCD M06/M08 Q1015 BLU
  • 200655Z AUTO 06006KT 9999 NCD M06/M08 Q1015 BLU
  • 200625Z AUTO 08005KT 9999 NCD M06/M08 Q1015 BLU
  • 200555Z AUTO 08004KT 9999 NCD M05/M07 Q1015 BLU

TAF TAF EHVK
Valide du 20 à 06h jusqu'au 20 à 18h UTC


200511Z 2006/2018 06006KT CAVOK
Pas de NOTAMs connus pour ce terrain.



MET'MAP, la Météo Aéronautique d'un coup d'oeil ! - Copyright ORBIFLY Décembre 2007 - Disclaimer

ORBIFLY MET'MAP TEAM :

Programmation & Développement : Alexandra Zaïnal
Conception & Développement : Baudouin d'Aumeries
Co-Programmation & Développement : Marc-Olivier Méhu
Soutien technique & logistique : Manuel Goepfert

Contact : metmap@orbifly.com




SOURCES & CREDITS :

   NOAA